This demonstration page uses our WeatherBlox Daily Observations layout. Learn more.

Left ArrowRight Arrow

Hourly Observations for September 23, 2015

Temp ( °F °C ) Dew Point ( °F °C ) Humidity (%) Winds ( mph kmh ) Pressure ( in mb ) Visibility ( mi km ) Precip ( " mm )
12:52 am 00:52 Mostly Cloudy 68 20 62 16.7 81 81 E 5 7 30.03 1017 10 16 0.00 0.00
1:52 am 01:52 Cloudy 70 21.1 63 17.2 79 79 E 3 6 30.05 1018 10 16 0.00 0.00
2:52 am 02:52 Cloudy 70 21.1 64 17.8 82 82 SE 5 7 30.07 1018 10 16 0.00 0.00
3:00 am 03:00 Cloudy with Thunderstorms 70 21 64 18 83 83 ESE 6 9 30.06 1018 10 16 0.00 0.00
3:52 am 03:52 Cloudy with Thunderstorms 70 21.1 66 18.9 87 87 SSE 5 7 30.06 1018 10 16 0.00 0.00
4:24 am 04:24 Cloudy with Thunderstorms 70 21 61 16 73 73 ESE 28 44 30.09 1019 2 2 0.00 0.00
4:33 am 04:33 Cloudy with Strong Thunderstorms 65 18.3 60 15.6 84 84 ESE 31 50 30.15 1021 1 1 0.12 3.05
4:36 am 04:36 Cloudy with Strong Thunderstorms 63 17 59 15 88 88 E 40 65 30.12 1020 1 1 0.00 0.00
4:40 am 04:40 Cloudy with Strong Thunderstorms 63 17 61 16 94 94 ENE 40 65 30.09 1019 1 1 0.00 0.00
4:45 am 04:45 Cloudy with Strong Thunderstorms 62 16.7 59 15 90 90 ENE 33 54 30.09 1019 3 4 0.52 13.21
4:48 am 04:48 Cloudy with Strong Thunderstorms 63 17 57 14 83 83 ENE 30 48 30.12 1020 4 6 0.00 0.00
4:52 am 04:52 Windy with Storms Likely 64 17.8 57 13.9 78 78 E 20 31 30.11 1020 4 6 0.60 15.24
4:54 am 04:54 Windy with Storms Likely 64 18 57 14 78 78 E 20 31 30.15 1021 3 5 0.00 0.00
4:56 am 04:56 Cloudy with Thunderstorms 64 17.8 60 15.6 87 87 SE 30 48 30.15 1021 1 1 0.01 0.25
5:01 am 05:01 Cloudy with Strong Thunderstorms 65 18.3 62 16.7 90 90 E 28 44 30.12 1020 1 1 0.32 8.13
5:09 am 05:09 Cloudy with Strong Thunderstorms 63 17.2 59 15 87 87 N 12 19 30.12 1020 2 2 0.63 16.00
5:42 am 05:42 Cloudy with Strong Thunderstorms 64 18 64 18 100 100 SE 14 22 30.06 1018 1 2 0.00 0.00
5:52 am 05:52 Cloudy with Strong Thunderstorms 65 18.3 64 17.8 97 97 ENE 14 22 30.07 1018 1 1 1.50 38.10
6:03 am 06:03 Cloudy with Strong Thunderstorms 66 19 63 17 88 88 E 23 37 30.09 1019 1 2 0.00 0.00
6:52 am 06:52 Cloudy with Strong Thunderstorms 65 18.3 64 17.8 97 97 NNE 22 35 30.10 1019 1 2 1.15 29.21
6:59 am 06:59 Cloudy with Strong Thunderstorms 65 18.3 64 17.8 97 97 NNE 22 35 30.12 1020 1 1 0.20 5.08
7:06 am 07:06 Cloudy with Strong Thunderstorms 64 18 64 18 100 100 ENE 22 35 30.12 1020 2 3 0.00 0.00
7:37 am 07:37 Cloudy with Thunderstorms 66 18.9 64 17.8 93 93 NNE 9 15 30.12 1020 3 4 0.77 19.56
7:45 am 07:45 Cloudy with Thunderstorms 66 18.9 64 17.8 93 93 VRB 5 7 30.15 1021 3 5 0.77 19.56
7:50 am 07:50 Cloudy with Strong Thunderstorms 66 19 64 18 94 94 SE 16 26 30.12 1020 2 2 0.77 19.56
7:52 am 07:52 Cloudy with Strong Thunderstorms 66 18.9 64 17.8 93 93 ESE 15 24 30.14 1021 2 2 0.81 20.57
8:42 am 08:42 Cloudy with Thunderstorms 64 18 64 18 100 100 N 6 9 30.15 1021 3 5 0.00 0.00
8:50 am 08:50 Cloudy with Strong Thunderstorms 64 18 64 18 100 100 E 8 13 30.18 1022 2 2 0.00 0.00
8:52 am 08:52 Cloudy with Strong Thunderstorms 66 18.9 65 18.3 96 96 E 8 13 30.15 1021 2 2 0.97 24.64
9:09 am 09:09 Cloudy with Thunderstorms 66 18.9 65 18.3 96 96 ENE 9 15 30.12 1020 4 6 0.18 4.57
9:48 am 09:48 Cloudy 66 19 64 18 94 94 E 7 11 30.09 1019 10 16 0.00 0.00
9:52 am 09:52 Cloudy 67 19.4 65 18.3 93 93 E 9 15 30.11 1020 10 16 0.19 4.83
10:52 am 10:52 Cloudy 69 20.6 66 18.9 90 90 ESE 9 15 30.12 1020 10 16 0.00 0.03
11:52 am 11:52 Cloudy with Light Rain 70 21.1 66 18.9 87 87 VRB 3 6 30.12 1020 10 16 0.00 0.03
12:12 pm 12:12 Cloudy 70 21 66 19 88 88 Calm 30.12 1020 10 16 0.00 0.00
12:50 pm 12:50 Cloudy 70 21 66 19 88 88 ESE 12 19 30.09 1019 10 16 0.00 0.00
12:52 pm 12:52 Cloudy 70 21.1 65 18.3 84 84 ESE 10 17 30.11 1020 10 16 0.00 0.03
2:52 pm 14:52 Cloudy with Light Rain 69 20.6 66 18.9 90 90 ESE 8 13 30.08 1019 6 10 0.01 0.25
3:52 pm 15:52 Cloudy 70 21.1 67 19.4 90 90 E 8 13 30.06 1018 10 16 0.01 0.25
4:52 pm 16:52 Cloudy 71 21.7 69 20.6 94 94 E 6 9 30.06 1018 7 11 0.00 0.00
5:15 pm 17:15 Cloudy 71 21.7 69 20.6 94 94 E 7 11 30.03 1017 7 11 0.00 0.00
5:52 pm 17:52 Cloudy 72 22.2 69 20.6 91 91 ESE 7 11 30.04 1017 7 11 0.00 0.03
6:52 pm 18:52 Cloudy 71 21.7 69 20.6 94 94 VRB 5 7 30.04 1017 7 11 0.00 0.03
7:52 pm 19:52 Cloudy with Rain 70 21.1 69 20.6 97 97 Calm 30.06 1018 7 11 0.06 1.52
8:52 pm 20:52 Cloudy with Light Rain 68 20 68 20 100 100 NW 7 11 30.06 1018 5 8 0.15 3.81
9:48 pm 21:48 Cloudy with Heavy Rain 68 20 68 20 100 100 VRB 6 9 30.06 1018 2 3 0.00 0.00
9:52 pm 21:52 Cloudy with Heavy Rain 68 20 68 20 100 100 N 6 9 30.07 1018 2 2 0.20 5.08
10:00 pm 22:00 Cloudy with Light Rain 68 20 68 20 100 100 NNE 5 7 30.06 1018 3 5 0.00 0.00
10:52 pm 22:52 Cloudy with Light Rain 70 21.1 68 20 93 93 E 5 7 30.05 1018 7 11 0.08 2.03
11:52 pm 23:52 Cloudy with Light Rain 69 20.6 67 19.4 93 93 ESE 10 17 30.05 1018 9 14 0.00 0.03

Powered by AerisWeather